Weather History for KROX - December, 2012

Change the Weather History Date:

Sunday, December 23, 2012

  Actual Average Record
Temperature  
Mean Temperature -6 °F -  
Max Temperature 1 °F 12 °F 37 °F (2005)
Min Temperature -13 °F -5 °F -32 °F (1949)
Degree Days  
Heating Degree Days 71    
Moisture  
Dew Point -11 °F    
Average Humidity 76    
Maximum Humidity 84    
Minimum Humidity 70    
Precipitation  
Precipitation 0.00 in - - ()
Sea Level Pressure  
Sea Level Pressure 30.19 in    
Wind  
Wind Speed 5 mph (WNW)    
Max Wind Speed 9 mph    
Max Gust Speed -    
Visibility 10 miles    
Events      
Averages and records for this station are not official NWS values.
T = Trace of Precipitation, MM = Missing Value Source: NWS Daily Summary

Daily Weather History Graph

Daily Weather History Graph

Search for Another Location

Airport or City:

Trip Planner

Search our weather history database for the weather conditions in past years. The results will help you decide how hot, cold, wet, or windy it might be!

Date:

Astronomy

Dec. 23, 2012 Rise Set
Actual Time 8:14 AM CST 4:29 PM CST
Civil Twilight 7:37 AM CST 5:07 PM CST
Nautical Twilight 6:56 AM CST 5:47 PM CST
Astronomical Twilight 6:18 AM CST 6:26 PM CST
Moon 1:30 PM CST (12/23) 3:46 AM CST (12/23)
Length of Visible Light 9h 29m
Length of Day
8h 15m
Waxing Gibbous, 82% of the Moon is Illuminated
Dec 23
Waxing Gibbous
Dec 28
Full
Jan 4
Last Quarter
Jan 11
New
Jan 18
First Quarter

Hourly Weather History & Observations

Time (CST) Temp. Windchill Dew Point Humidity Pressure Visibility Wind Dir Wind Speed Gust Speed Precip Events Conditions
12:14 AM -4.0 °F -17.8 °F -9.4 °F 78% 30.19 in 10.0 mi NNW 6.9 mph - N/A   Clear
12:34 AM -4.0 °F -17.8 °F -9.4 °F 78% 30.20 in 10.0 mi NW 6.9 mph - N/A   Clear
12:54 AM -2.2 °F -14.2 °F -9.4 °F 71% 30.21 in 10.0 mi NW 5.8 mph - N/A   Clear
1:14 AM -5.8 °F -16.7 °F -11.2 °F 77% 30.21 in 10.0 mi WNW 4.6 mph - N/A   Clear
1:34 AM -5.8 °F -16.7 °F -9.4 °F 84% 30.21 in 10.0 mi NW 4.6 mph - N/A   Clear
1:54 AM -5.8 °F -16.7 °F -11.2 °F 77% 30.21 in 10.0 mi West 4.6 mph - N/A   Clear
2:15 AM -5.8 °F -18.4 °F -11.2 °F 77% 30.20 in 10.0 mi NW 5.8 mph - N/A   Clear
2:34 AM -7.6 °F -16.5 °F -13.0 °F 77% 30.20 in 10.0 mi NNW 3.5 mph - N/A   Clear
2:54 AM -7.6 °F -16.5 °F -13.0 °F 77% 30.21 in 10.0 mi NNW 3.5 mph - N/A   Clear
3:12 AM -7.6 °F -16.5 °F -11.2 °F 84% 30.21 in 10.0 mi WNW 3.5 mph - N/A   Clear
3:34 AM -5.8 °F -16.7 °F -11.2 °F 77% 30.22 in 10.0 mi WNW 4.6 mph - N/A   Clear
3:55 AM -5.8 °F -14.5 °F -11.2 °F 77% 30.22 in 10.0 mi WNW 3.5 mph - N/A   Clear
4:14 AM -9.4 °F -22.7 °F -16.6 °F 71% 30.21 in 10.0 mi NW 5.8 mph - N/A   Clear
4:34 AM -9.4 °F -20.9 °F -14.8 °F 77% 30.21 in 10.0 mi NW 4.6 mph - N/A   Clear
4:55 AM -7.6 °F -16.5 °F -14.8 °F 71% 30.21 in 10.0 mi NW 3.5 mph - N/A   Clear
5:14 AM -7.6 °F -18.8 °F -14.8 °F 71% 30.20 in 10.0 mi NW 4.6 mph - N/A   Clear
5:34 AM -9.4 °F -20.9 °F -16.6 °F 71% 30.20 in 10.0 mi NNW 4.6 mph - N/A   Clear
5:54 AM -11.2 °F -20.6 °F -16.6 °F 77% 30.20 in 10.0 mi North 3.5 mph - N/A   Clear
6:14 AM -11.2 °F - -18.4 °F 70% 30.20 in 10.0 mi Calm Calm - N/A   Clear
6:34 AM -9.4 °F -20.9 °F -16.6 °F 71% 30.19 in 10.0 mi NNE 4.6 mph - N/A   Clear
6:54 AM -11.2 °F -23.0 °F -16.6 °F 77% 30.20 in 10.0 mi North 4.6 mph - N/A   Clear
7:14 AM -11.2 °F - -16.6 °F 77% 30.20 in 10.0 mi Calm Calm - N/A   Clear
7:35 AM -11.2 °F - -16.6 °F 77% 30.21 in 10.0 mi Calm Calm - N/A   Clear
7:54 AM -11.2 °F - -18.4 °F 70% 30.21 in 10.0 mi Calm Calm - N/A   Clear
8:14 AM -13.0 °F - -18.4 °F 77% 30.21 in 10.0 mi Calm Calm - N/A   Clear
8:34 AM -11.2 °F - -18.4 °F 70% 30.21 in 7.0 mi Calm Calm - N/A   Clear
8:54 AM -11.2 °F - -18.4 °F 70% 30.21 in 10.0 mi Calm Calm - N/A   Clear
9:14 AM -9.4 °F -20.9 °F -14.8 °F 77% 30.21 in 10.0 mi West 4.6 mph - N/A   Clear
9:34 AM -9.4 °F - -16.6 °F 71% 30.21 in 10.0 mi Calm Calm - N/A   Clear
9:54 AM -9.4 °F - -14.8 °F 77% 30.21 in 10.0 mi Calm Calm - N/A   Clear
10:14 AM -9.4 °F - -14.8 °F 77% 30.21 in 10.0 mi Calm Calm - N/A   Clear
10:34 AM -7.6 °F - -14.8 °F 71% 30.21 in 10.0 mi Calm Calm - N/A   Clear
10:54 AM -5.8 °F -16.7 °F -11.2 °F 77% 30.21 in 10.0 mi West 4.6 mph - N/A   Clear
11:14 AM -4.0 °F -12.4 °F -9.4 °F 78% 30.22 in 10.0 mi West 3.5 mph - N/A   Clear
11:34 AM -5.8 °F - -11.2 °F 77% 30.21 in 10.0 mi Calm Calm - N/A   Clear
11:54 AM -5.8 °F -14.5 °F -11.2 °F 77% 30.21 in 10.0 mi West 3.5 mph - N/A   Clear
12:14 PM -4.0 °F - -9.4 °F 78% 30.19 in 10.0 mi Calm Calm - N/A   Clear
12:34 PM -4.0 °F -12.4 °F -9.4 °F 78% 30.20 in 7.0 mi West 3.5 mph - N/A   Clear
12:54 PM -2.2 °F - -7.6 °F 78% 30.18 in 10.0 mi Calm Calm - N/A   Clear
1:14 PM -2.2 °F -12.5 °F -7.6 °F 78% 30.18 in 10.0 mi WSW 4.6 mph - N/A   Clear
1:34 PM -0.4 °F -8.3 °F -7.6 °F 72% 30.18 in 10.0 mi West 3.5 mph - N/A   Clear
1:55 PM -0.4 °F -12.0 °F -5.8 °F 78% 30.18 in 10.0 mi West 5.8 mph - N/A   Clear
2:14 PM -0.4 °F -13.4 °F -5.8 °F 78% 30.18 in 10.0 mi West 6.9 mph - N/A   Clear
2:34 PM -0.4 °F -10.4 °F -5.8 °F 78% - 10.0 mi West 4.6 mph - N/A   Clear
2:55 PM -0.4 °F -13.4 °F -5.8 °F 78% 30.17 in 10.0 mi West 6.9 mph - N/A   Clear
3:14 PM -0.4 °F -10.4 °F -5.8 °F 78% 30.17 in 10.0 mi West 4.6 mph - N/A   Clear
3:34 PM 1.4 °F -9.9 °F -5.8 °F 72% 30.17 in 10.0 mi West 5.8 mph - N/A   Clear
3:54 PM 1.4 °F -11.3 °F -4.0 °F 78% 30.17 in 10.0 mi West 6.9 mph - N/A   Clear
4:14 PM 1.4 °F -11.3 °F -4.0 °F 78% 30.18 in 10.0 mi West 6.9 mph - N/A   Clear
4:34 PM -0.4 °F -15.7 °F -5.8 °F 78% 30.18 in 10.0 mi West 9.2 mph - N/A   Clear
4:54 PM -0.4 °F -13.4 °F -5.8 °F 78% 30.18 in 10.0 mi West 6.9 mph - N/A   Clear
5:14 PM -0.4 °F -10.4 °F -7.6 °F 72% 30.17 in 10.0 mi WNW 4.6 mph - N/A   Clear
5:34 PM -2.2 °F -15.6 °F -7.6 °F 78% 30.17 in 10.0 mi West 6.9 mph - N/A   Clear
5:54 PM -0.4 °F -14.7 °F -7.6 °F 72% 30.17 in 10.0 mi West 8.1 mph - N/A   Clear
6:14 PM -0.4 °F -13.4 °F -7.6 °F 72% 30.18 in 10.0 mi West 6.9 mph - N/A   Clear
6:34 PM -0.4 °F -15.7 °F -5.8 °F 78% 30.18 in 10.0 mi West 9.2 mph - N/A   Clear
6:54 PM -0.4 °F -14.7 °F -7.6 °F 72% 30.18 in 10.0 mi West 8.1 mph - N/A   Clear
7:04 PM -2.2 °F -18.0 °F -7.6 °F 78% 30.18 in 10.0 mi WNW 9.2 mph - N/A   Clear
7:34 PM -2.2 °F -15.6 °F -7.6 °F 78% 30.18 in 10.0 mi WNW 6.9 mph - N/A   Clear
7:54 PM -2.2 °F -15.6 °F -7.6 °F 78% 30.17 in 10.0 mi NW 6.9 mph - N/A   Clear
8:15 PM -2.2 °F -18.0 °F -7.6 °F 78% 30.16 in 10.0 mi NW 9.2 mph - N/A   Clear
8:54 PM -2.2 °F -15.6 °F -7.6 °F 78% 30.15 in 10.0 mi NNW 6.9 mph - N/A   Clear
9:14 PM -2.2 °F -14.2 °F -9.4 °F 71% 30.15 in 10.0 mi NNW 5.8 mph - N/A   Clear
9:35 PM -4.0 °F -17.8 °F -9.4 °F 78% 30.15 in 10.0 mi North 6.9 mph - N/A   Clear
9:54 PM -5.8 °F -16.7 °F -11.2 °F 77% 30.15 in 10.0 mi NNW 4.6 mph - N/A   Clear
10:14 PM -5.8 °F -18.4 °F -11.2 °F 77% 30.15 in 10.0 mi North 5.8 mph - N/A   Clear
10:34 PM -5.8 °F -18.4 °F -11.2 °F 77% 30.15 in 10.0 mi NNW 5.8 mph - N/A   Clear
10:54 PM -5.8 °F -18.4 °F -11.2 °F 77% 30.16 in 10.0 mi NNW 5.8 mph - N/A   Clear
11:14 PM -5.8 °F -14.5 °F -11.2 °F 77% 30.16 in 10.0 mi NW 3.5 mph - N/A   Clear
11:34 PM -5.8 °F -16.7 °F -11.2 °F 77% 30.16 in 10.0 mi NW 4.6 mph - N/A   Clear
11:54 PM -7.6 °F -18.8 °F -13.0 °F 77% 30.16 in 10.0 mi NW 4.6 mph - N/A   Clear